DJ6OI-23 Weather Reports


Display with metric or nautical units.
time (UTC)temp
F
wind
direction
speed
MPH
gust
MPH
rain 1hr
in
rain 24hr
in
rain mn
in
humidity
%
barometer
mb
20260904115433 82 0.0 0.0 0.00 0.00 0.00 62 989.8
20260904113859 83 0.0 0.0 0.00 0.00 0.00 61 989.8
20260904112324 81 0.0 0.0 0.00 0.00 0.00 64 990.1
20260904110749 79 0.0 0.0 0.00 0.00 0.00 66 990.3
20260904105214 82 0.0 0.0 0.00 0.00 0.00 62 990.4
20260904103639 83 0.0 0.0 0.00 0.00 0.00 63 990.4
20260904102104 83 0.0 0.0 0.00 0.00 0.00 63 990.6
20260904100529 74 0.0 0.0 0.00 0.00 0.00 76 990.9
20260904094954 76 0.0 0.0 0.00 0.00 0.00 74 991.0
20260904093419 79 0.0 0.0 0.00 0.00 0.00 70 991.1
20260904091844 75 0.0 0.0 0.00 0.00 0.00 76 991.4
20260904090309 74 0.0 0.0 0.00 0.00 0.00 78 991.6
20260904084734 75 0.0 0.0 0.00 0.00 0.00 76 991.7
20260904083200 73 0.0 0.0 0.00 0.00 0.00 81 991.8
20260904081625 72 0.0 0.0 0.00 0.00 0.00 82 991.9
20260904080050 72 0.0 0.0 0.00 0.00 0.00 82 992.0
20260904074515 72 0.0 0.0 0.00 0.00 0.00 83 992.2
20260904072940 73 0.0 0.0 0.00 0.00 0.00 81 992.1
20260904071405 74 0.0 0.0 0.00 0.00 0.00 81 992.2
20260904065830 72 0.0 0.0 0.00 0.00 0.00 84 992.4
20260904064255 71 0.0 0.0 0.00 0.00 0.00 89 992.5
20260904062720 70 0.0 0.0 0.00 0.00 0.00 90 992.6
20260904061145 69 0.0 0.0 0.00 0.00 0.00 94 992.8
20260904055610 68 0.0 0.0 0.00 0.00 0.00 96 992.9
20260904054035 68 0.0 0.0 0.00 0.00 0.00 97 993.2
20260904052501 67 0.0 0.0 0.00 0.00 0.00 98 993.2
20260904050926 66 0.0 0.0 0.00 0.00 0.00 10 993.1
20260904045351 65 0.0 0.0 0.00 0.00 0.00 10 993.2
20260904043816 65 0.0 0.0 0.00 0.00 0.00 10 993.4
20260904042241 65 0.0 0.0 0.00 0.00 0.00 10 993.6
20260904040706 65 0.0 0.0 0.00 0.00 0.00 10 993.8
20260904035131 65 0.0 0.0 0.00 0.00 0.00 10 993.9
20260904033556 65 0.0 0.0 0.00 0.00 0.00 10 994.1
20260904032021 65 0.0 0.0 0.00 0.00 0.00 10 994.2
20260904030446 65 0.0 0.0 0.00 0.00 0.00 10 994.5
20260904024911 64 0.0 0.0 0.00 0.00 0.00 10 994.6
20260904023337 64 0.0 0.0 0.00 0.00 0.00 10 994.8
20260904021802 64 0.0 0.0 0.00 0.00 0.00 10 995.1
20260904020227 64 0.0 0.0 0.00 0.00 0.00 10 995.1
20260904014652 64 0.0 0.0 0.00 0.00 0.00 99 995.1
20260904013117 63 0.0 0.0 0.00 0.00 0.00 98 995.1
20260904011542 63 0.0 0.0 0.00 0.00 0.00 98 995.4
20260904010007 63 0.0 0.0 0.00 0.00 0.00 97 995.6
20260904004432 63 0.0 0.0 0.00 0.00 0.00 97 995.8
20260904002857 63 0.0 0.0 0.00 0.00 0.00 96 995.8
20260904001322 63 0.0 0.0 0.00 0.00 0.00 95 996.0
20260903235747 64 0.0 0.0 0.00 0.00 0.00 94 996.1
20260903232638 64 0.0 0.0 0.00 0.00 0.00 94 996.5
20260903231103 64 0.0 0.0 0.00 0.00 0.00 93 996.5
20260903225528 65 0.0 0.0 0.00 0.00 0.00 93 996.8
20260903223953 65 0.0 0.0 0.00 0.00 0.00 93 997.0
20260903222418 65 0.0 0.0 0.00 0.00 0.00 93 996.8
20260903220843 65 0.0 0.0 0.00 0.00 0.00 93 997.0
20260903215308 65 0.0 0.0 0.00 0.00 0.00 94 996.9
20260903212158 65 0.0 0.0 0.00 0.00 0.00 93 997.0
20260903210623 65 0.0 0.0 0.00 0.00 0.00 93 997.0
20260903205049 65 0.0 0.0 0.00 0.00 0.00 93 996.8
20260903203514 65 0.0 0.0 0.00 0.00 0.00 92 996.8
20260903201939 65 0.0 0.0 0.00 0.00 0.00 92 996.8
20260903200404 65 0.0 0.0 0.00 0.00 0.00 92 996.8
20260903194829 65 0.0 0.0 0.00 0.00 0.00 91 996.9
20260903193254 65 0.0 0.0 0.00 0.00 0.00 92 997.0
20260903191719 64 0.0 0.0 0.00 0.00 0.00 91 997.0
20260903190144 64 0.0 0.0 0.00 0.00 0.00 91 996.9
20260903184609 64 0.0 0.0 0.00 0.00 0.00 90 996.9
20260903183034 64 0.0 0.0 0.00 0.00 0.00 89 996.6
20260903181459 66 0.0 0.0 0.00 0.00 0.00 87 996.7
20260903175925 66 0.0 0.0 0.00 0.00 0.00 87 996.7
20260903174350 66 0.0 0.0 0.00 0.00 0.00 85 996.6
20260903172815 68 0.0 0.0 0.00 0.00 0.00 83 996.7
20260903171240 69 0.0 0.0 0.00 0.00 0.00 82 996.5
20260903165705 68 0.0 0.0 0.00 0.00 0.00 83 996.5
20260903164130 69 0.0 0.0 0.00 0.00 0.00 82 996.6
20260903162555 69 0.0 0.0 0.00 0.00 0.00 81 996.7
20260903161020 71 0.0 0.0 0.00 0.00 0.00 77 996.6
20260903155445 71 0.0 0.0 0.00 0.00 0.00 77 996.5
20260903153910 73 0.0 0.0 0.00 0.00 0.00 73 996.7
20260903152335 71 0.0 0.0 0.00 0.00 0.00 75 996.8
20260903150800 72 0.0 0.0 0.00 0.00 0.00 74 997.0
20260903145225 67 0.0 0.0 0.00 0.00 0.00 80 997.1
20260903143650 67 0.0 0.0 0.00 0.00 0.00 78 997.0
20260903142116 68 0.0 0.0 0.00 0.00 0.00 76 997.0
20260903140541 69 0.0 0.0 0.00 0.00 0.00 74 996.9
20260903135006 68 0.0 0.0 0.00 0.00 0.00 75 997.0
20260903133431 68 0.0 0.0 0.00 0.00 0.00 73 997.0
20260903131856 68 0.0 0.0 0.00 0.00 0.00 72 997.1
20260903130321 68 0.0 0.0 0.00 0.00 0.00 73 997.1
20260903124746 67 0.0 0.0 0.00 0.00 0.00 73 997.2
20260903123211 68 0.0 0.0 0.00 0.00 0.00 70 997.0
20260903121636 69 0.0 0.0 0.00 0.00 0.00 68 996.9
20260903120101 69 0.0 0.0 0.00 0.00 0.00 67 996.9